owner,sensor,date,latitude,longitude,vertical_datum,sea_water_temperature,qcFlag 
ENP,ioos.station.NOAA.NDBC:LBRF1:1,2017-09-01T00:00:00Z,25.4840,-81.1330,1.0,31.8,2 
ENP,ioos.station.NOAA.NDBC:LBRF1:1,2017-09-01T03:00:00Z,25.4840,-81.1330,1.0,31.54,2 
ENP,ioos.station.NOAA.NDBC:LBRF1:1,2017-09-01T06:00:00Z,25.4840,-81.1330,1.0,31.19,2 
ENP,ioos.station.NOAA.NDBC:LBRF1:1,2017-09-01T07:00:00Z,25.4840,-81.1330,1.0,31.03,2 
ENP,ioos.station.NOAA.NDBC:LBRF1:1,2017-09-01T08:00:00Z,25.4840,-81.1330,1.0,31.19,2 
ENP,ioos.station.NOAA.NDBC:LBRF1:1,2017-09-01T10:00:00Z,25.4840,-81.1330,1.0,31.23,2 
ENP,ioos.station.NOAA.NDBC:LBRF1:1,2017-09-01T11:00:00Z,25.4840,-81.1330,1.0,31.19,2 
ENP,ioos.station.NOAA.NDBC:LBRF1:1,2017-09-01T13:00:00Z,25.4840,-81.1330,1.0,31.3,2 
ENP,ioos.station.NOAA.NDBC:LBRF1:1,2017-09-01T14:00:00Z,25.4840,-81.1330,1.0,31.44,2 
ENP,ioos.station.NOAA.NDBC:LBRF1:1,2017-09-01T15:00:00Z,25.4840,-81.1330,1.0,31.74,2 
ENP,ioos.station.NOAA.NDBC:LBRF1:1,2017-09-01T16:00:00Z,25.4840,-81.1330,1.0,32.3,11111222 
ENP,ioos.station.NOAA.NDBC:LBRF1:1,2017-09-01T17:00:00Z,25.4840,-81.1330,1.0,32.29,2 
ENP,ioos.station.NOAA.NDBC:LBRF1:1,2017-09-01T18:00:00Z,25.4840,-81.1330,1.0,32.25,2 
ENP,ioos.station.NOAA.NDBC:LBRF1:1,2017-09-01T19:00:00Z,25.4840,-81.1330,1.0,31.95,2 
ENP,ioos.station.NOAA.NDBC:LBRF1:1,2017-09-01T20:00:00Z,25.4840,-81.1330,1.0,31.81,2 
ENP,ioos.station.NOAA.NDBC:LBRF1:1,2017-09-01T21:00:00Z,25.4840,-81.1330,1.0,31.82,2 
ENP,ioos.station.NOAA.NDBC:LBRF1:1,2017-09-01T22:00:00Z,25.4840,-81.1330,1.0,31.9,11111222 
ENP,ioos.station.NOAA.NDBC:LBRF1:1,2017-09-01T23:00:00Z,25.4840,-81.1330,1.0,31.98,2 
ENP,ioos.station.NOAA.NDBC:LBRF1:1,2017-09-02T00:00:00Z,25.4840,-81.1330,1.0,32.01,2 
ENP,ioos.station.NOAA.NDBC:LBRF1:1,2017-09-02T03:00:00Z,25.4840,-81.1330,1.0,31.88,2 
ENP,ioos.station.NOAA.NDBC:LBRF1:1,2017-09-02T06:00:00Z,25.4840,-81.1330,1.0,31.93,2 
ENP,ioos.station.NOAA.NDBC:LBRF1:1,2017-09-02T07:00:00Z,25.4840,-81.1330,1.0,31.86,2 
ENP,ioos.station.NOAA.NDBC:LBRF1:1,2017-09-02T08:00:00Z,25.4840,-81.1330,1.0,31.39,2 
ENP,ioos.station.NOAA.NDBC:LBRF1:1,2017-09-02T10:00:00Z,25.4840,-81.1330,1.0,31.37,2 
ENP,ioos.station.NOAA.NDBC:LBRF1:1,2017-09-02T11:00:00Z,25.4840,-81.1330,1.0,31.25,2 
ENP,ioos.station.NOAA.NDBC:LBRF1:1,2017-09-02T12:00:00Z,25.4840,-81.1330,1.0,31.08,2 
ENP,ioos.station.NOAA.NDBC:LBRF1:1,2017-09-02T13:00:00Z,25.4840,-81.1330,1.0,31.01,2 
ENP,ioos.station.NOAA.NDBC:LBRF1:1,2017-09-02T14:00:00Z,25.4840,-81.1330,1.0,30.96,2 
ENP,ioos.station.NOAA.NDBC:LBRF1:1,2017-09-02T15:00:00Z,25.4840,-81.1330,1.0,30.96,2 
ENP,ioos.station.NOAA.NDBC:LBRF1:1,2017-09-02T16:00:00Z,25.4840,-81.1330,1.0,31.18,2 
ENP,ioos.station.NOAA.NDBC:LBRF1:1,2017-09-02T17:00:00Z,25.4840,-81.1330,1.0,31.28,2 
ENP,ioos.station.NOAA.NDBC:LBRF1:1,2017-09-02T18:00:00Z,25.4840,-81.1330,1.0,31.19,2 
ENP,ioos.station.NOAA.NDBC:LBRF1:1,2017-09-02T19:00:00Z,25.4840,-81.1330,1.0,31.55,2 
ENP,ioos.station.NOAA.NDBC:LBRF1:1,2017-09-02T21:00:00Z,25.4840,-81.1330,1.0,31.4,2 
ENP,ioos.station.NOAA.NDBC:LBRF1:1,2017-09-02T22:00:00Z,25.4840,-81.1330,1.0,31.33,2 
ENP,ioos.station.NOAA.NDBC:LBRF1:1,2017-09-02T23:00:00Z,25.4840,-81.1330,1.0,31.32,2 
ENP,ioos.station.NOAA.NDBC:LBRF1:1,2017-09-03T00:00:00Z,25.4840,-81.1330,1.0,31.33,2 
ENP,ioos.station.NOAA.NDBC:LBRF1:1,2017-09-03T03:00:00Z,25.4840,-81.1330,1.0,31.22,2 
ENP,ioos.station.NOAA.NDBC:LBRF1:1,2017-09-03T06:00:00Z,25.4840,-81.1330,1.0,30.91,2 
ENP,ioos.station.NOAA.NDBC:LBRF1:1,2017-09-03T07:00:00Z,25.4840,-81.1330,1.0,31.03,2 
ENP,ioos.station.NOAA.NDBC:LBRF1:1,2017-09-03T08:00:00Z,25.4840,-81.1330,1.0,30.78,2 
ENP,ioos.station.NOAA.NDBC:LBRF1:1,2017-09-03T11:00:00Z,25.4840,-81.1330,1.0,30.72,2 
ENP,ioos.station.NOAA.NDBC:LBRF1:1,2017-09-03T13:00:00Z,25.4840,-81.1330,1.0,30.6,2 
ENP,ioos.station.NOAA.NDBC:LBRF1:1,2017-09-03T14:00:00Z,25.4840,-81.1330,1.0,30.59,2 
ENP,ioos.station.NOAA.NDBC:LBRF1:1,2017-09-03T15:00:00Z,25.4840,-81.1330,1.0,30.65,2 
ENP,ioos.station.NOAA.NDBC:LBRF1:1,2017-09-03T16:00:00Z,25.4840,-81.1330,1.0,31.28,2 
ENP,ioos.station.NOAA.NDBC:LBRF1:1,2017-09-03T17:00:00Z,25.4840,-81.1330,1.0,30.68,2 
ENP,ioos.station.NOAA.NDBC:LBRF1:1,2017-09-03T18:00:00Z,25.4840,-81.1330,1.0,30.7,11111222 
ENP,ioos.station.NOAA.NDBC:LBRF1:1,2017-09-03T19:00:00Z,25.4840,-81.1330,1.0,30.74,2 
ENP,ioos.station.NOAA.NDBC:LBRF1:1,2017-09-03T20:00:00Z,25.4840,-81.1330,1.0,30.94,2 
ENP,ioos.station.NOAA.NDBC:LBRF1:1,2017-09-03T21:00:00Z,25.4840,-81.1330,1.0,30.87,2 
ENP,ioos.station.NOAA.NDBC:LBRF1:1,2017-09-03T22:00:00Z,25.4840,-81.1330,1.0,30.84,2 
ENP,ioos.station.NOAA.NDBC:LBRF1:1,2017-09-03T23:00:00Z,25.4840,-81.1330,1.0,30.78,2 
ENP,ioos.station.NOAA.NDBC:LBRF1:1,2017-09-04T00:00:00Z,25.4840,-81.1330,1.0,30.83,2 
ENP,ioos.station.NOAA.NDBC:LBRF1:1,2017-09-04T03:00:00Z,25.4840,-81.1330,1.0,30.61,2 
ENP,ioos.station.NOAA.NDBC:LBRF1:1,2017-09-04T06:00:00Z,25.4840,-81.1330,1.0,30.25,2 
ENP,ioos.station.NOAA.NDBC:LBRF1:1,2017-09-04T07:00:00Z,25.4840,-81.1330,1.0,29.87,2 
ENP,ioos.station.NOAA.NDBC:LBRF1:1,2017-09-04T08:00:00Z,25.4840,-81.1330,1.0,29.8,11111222 
ENP,ioos.station.NOAA.NDBC:LBRF1:1,2017-09-04T11:00:00Z,25.4840,-81.1330,1.0,30.22,2 
ENP,ioos.station.NOAA.NDBC:LBRF1:1,2017-09-04T12:00:00Z,25.4840,-81.1330,1.0,30.1,11111222 
ENP,ioos.station.NOAA.NDBC:LBRF1:1,2017-09-04T13:00:00Z,25.4840,-81.1330,1.0,30.03,2 
ENP,ioos.station.NOAA.NDBC:LBRF1:1,2017-09-04T14:00:00Z,25.4840,-81.1330,1.0,30.07,2 
ENP,ioos.station.NOAA.NDBC:LBRF1:1,2017-09-04T15:00:00Z,25.4840,-81.1330,1.0,30.07,2 
ENP,ioos.station.NOAA.NDBC:LBRF1:1,2017-09-04T16:00:00Z,25.4840,-81.1330,1.0,30.51,2 
ENP,ioos.station.NOAA.NDBC:LBRF1:1,2017-09-04T17:00:00Z,25.4840,-81.1330,1.0,30.14,2 
ENP,ioos.station.NOAA.NDBC:LBRF1:1,2017-09-04T18:00:00Z,25.4840,-81.1330,1.0,30.2,11111222 
ENP,ioos.station.NOAA.NDBC:LBRF1:1,2017-09-04T19:00:00Z,25.4840,-81.1330,1.0,30.29,2 
ENP,ioos.station.NOAA.NDBC:LBRF1:1,2017-09-04T21:00:00Z,25.4840,-81.1330,1.0,30.23,2 
ENP,ioos.station.NOAA.NDBC:LBRF1:1,2017-09-04T22:00:00Z,25.4840,-81.1330,1.0,30.1,11111222 
ENP,ioos.station.NOAA.NDBC:LBRF1:1,2017-09-04T23:00:00Z,25.4840,-81.1330,1.0,30.26,2 
ENP,ioos.station.NOAA.NDBC:LBRF1:1,2017-09-05T00:00:00Z,25.4840,-81.1330,1.0,30.3,11111222 
ENP,ioos.station.NOAA.NDBC:LBRF1:1,2017-09-05T03:00:00Z,25.4840,-81.1330,1.0,30.21,2 
ENP,ioos.station.NOAA.NDBC:LBRF1:1,2017-09-05T06:00:00Z,25.4840,-81.1330,1.0,29.79,2 
ENP,ioos.station.NOAA.NDBC:LBRF1:1,2017-09-05T07:00:00Z,25.4840,-81.1330,1.0,29.43,2 
ENP,ioos.station.NOAA.NDBC:LBRF1:1,2017-09-05T08:00:00Z,25.4840,-81.1330,1.0,29.3,11111222 
ENP,ioos.station.NOAA.NDBC:LBRF1:1,2017-09-05T10:00:00Z,25.4840,-81.1330,1.0,29.4,2 
ENP,ioos.station.NOAA.NDBC:LBRF1:1,2017-09-05T11:00:00Z,25.4840,-81.1330,1.0,29.63,2 
ENP,ioos.station.NOAA.NDBC:LBRF1:1,2017-09-05T13:00:00Z,25.4840,-81.1330,1.0,29.12,2 
ENP,ioos.station.NOAA.NDBC:LBRF1:1,2017-09-05T14:00:00Z,25.4840,-81.1330,1.0,29.85,2 
ENP,ioos.station.NOAA.NDBC:LBRF1:1,2017-09-05T15:00:00Z,25.4840,-81.1330,1.0,29.93,2 
ENP,ioos.station.NOAA.NDBC:LBRF1:1,2017-09-05T16:00:00Z,25.4840,-81.1330,1.0,30.0,11111222 
ENP,ioos.station.NOAA.NDBC:LBRF1:1,2017-09-05T17:00:00Z,25.4840,-81.1330,1.0,29.8,2 
ENP,ioos.station.NOAA.NDBC:LBRF1:1,2017-09-05T18:00:00Z,25.4840,-81.1330,1.0,29.92,2 
ENP,ioos.station.NOAA.NDBC:LBRF1:1,2017-09-05T19:00:00Z,25.4840,-81.1330,1.0,30.1,11111222 
ENP,ioos.station.NOAA.NDBC:LBRF1:1,2017-09-05T20:00:00Z,25.4840,-81.1330,1.0,30.15,2 
ENP,ioos.station.NOAA.NDBC:LBRF1:1,2017-09-05T21:00:00Z,25.4840,-81.1330,1.0,30.2,11111222 
ENP,ioos.station.NOAA.NDBC:LBRF1:1,2017-09-05T22:00:00Z,25.4840,-81.1330,1.0,30.3,11111222 
ENP,ioos.station.NOAA.NDBC:LBRF1:1,2017-09-05T23:00:00Z,25.4840,-81.1330,1.0,29.93,2 
ENP,ioos.station.NOAA.NDBC:LBRF1:1,2017-09-06T00:00:00Z,25.4840,-81.1330,1.0,29.8,11111222 
ENP,ioos.station.NOAA.NDBC:LBRF1:1,2017-09-06T03:00:00Z,25.4840,-81.1330,1.0,29.8,11111222 
ENP,ioos.station.NOAA.NDBC:LBRF1:1,2017-09-06T06:00:00Z,25.4840,-81.1330,1.0,29.5,11111222 
ENP,ioos.station.NOAA.NDBC:LBRF1:1,2017-09-06T07:00:00Z,25.4840,-81.1330,1.0,29.3,11111222 
ENP,ioos.station.NOAA.NDBC:LBRF1:1,2017-09-06T08:00:00Z,25.4840,-81.1330,1.0,29.2,11111222 
ENP,ioos.station.NOAA.NDBC:LBRF1:1,2017-09-06T10:00:00Z,25.4840,-81.1330,1.0,29.04,2 
ENP,ioos.station.NOAA.NDBC:LBRF1:1,2017-09-06T11:00:00Z,25.4840,-81.1330,1.0,29.04,2 
 
DISCLAIMER: The Gulf of Mexico Coastal and Ocean Observing (GCOOS) Data Portal aggregates data from the regional data providers for the convenience of all data users. Data published on this website should not be used for navigation or certain other uses as we cannot guarantee data accuracy or availability. The data and delivery services are provided 'as is' without warranty of any kind. Data Source: Gulf of Mexico Coastal Ocean Observing System Data Portal (http://data.gcoos.org/) 
